This demonstration page uses our WeatherBlox Daily Observations layout. Learn more.

Left ArrowRight Arrow

Hourly Observations for April 18, 2022

Temp ( °F °C ) Dew Point ( °F °C ) Humidity (%) Winds ( mph kmh ) Pressure ( in mb ) Visibility ( mi km ) Precip ( " mm )
12:52 am 00:52 Cloudy 39 3.9 37 2.8 93 93 N 10 17 30.15 1021 10 16 0.00 0.00
1:52 am 01:52 Cloudy 39 3.9 37 2.8 93 93 N 12 19 30.17 1022 10 16 0.00 0.00
2:38 am 02:38 Cloudy 39 3.9 36 2.2 89 89 N 12 19 30.19 1022 10 16 0.00 0.00
2:45 am 02:45 Cloudy 39 3.9 36 2.2 89 89 N 14 22 30.19 1022 10 16 0.00 0.00
2:52 am 02:52 Cloudy 39 3.9 36 2.2 89 89 N 13 20 30.16 1021 10 16 0.00 0.00
3:52 am 03:52 Cloudy 39 3.9 36 2.2 89 89 N 13 20 30.17 1022 10 16 0.00 0.00
4:10 am 04:10 Cloudy 39 3.9 36 2.2 89 89 N 13 20 30.20 1023 10 16 0.00 0.00
4:35 am 04:35 Cloudy 38 3.3 36 2.2 93 93 N 12 19 30.22 1023 10 16 0.00 0.00
4:52 am 04:52 Cloudy 38 3.3 36 2.2 93 93 N 13 20 30.19 1022 10 16 0.00 0.00
5:06 am 05:06 Cloudy 39 3.9 36 2.2 89 89 NNW 10 17 30.23 1024 10 16 0.00 0.00
5:16 am 05:16 Cloudy 38 3.3 36 2.2 93 93 N 14 22 30.26 1025 10 16 0.00 0.00
5:52 am 05:52 Cloudy 38 3.3 35 1.7 89 89 undefined N/A 30.24 1024 10 16 0.00 0.00
6:29 am 06:29 Cloudy 38 3.3 35 1.7 89 89 NNW 12 19 30.27 1025 10 16 0.00 0.00
6:52 am 06:52 Cloudy 38 3.3 35 1.7 89 89 N 14 22 30.28 1025 10 16 0.00 0.00
7:39 am 07:39 Cloudy 38 3.3 35 1.7 89 89 N 12 19 30.32 1027 10 16 0.00 0.00
7:52 am 07:52 Cloudy 38 3.3 35 1.7 89 89 NNW 10 17 30.30 1026 10 16 0.00 0.00
8:52 am 08:52 Mostly Cloudy 41 5 36 2.2 82 82 NNW 8 13 30.33 1027 10 16 0.00 0.00
9:12 am 09:12 Mostly Cloudy 42 5.6 36 2.2 79 79 N 10 17 30.35 1028 10 16 0.00 0.00
9:22 am 09:22 Mostly Cloudy 41 5 35 1.7 79 79 NW 13 20 30.37 1028 10 16 0.00 0.00
9:32 am 09:32 Mostly Cloudy 41 5 35 1.7 79 79 N 12 19 30.37 1028 10 16 0.00 0.00
9:43 am 09:43 Cloudy 40 4.4 35 1.7 83 83 NW 13 20 30.37 1028 10 16 0.00 0.00
9:52 am 09:52 Cloudy 41 5 36 2.2 82 82 NW 12 19 30.35 1028 10 16 0.00 0.00
10:28 am 10:28 Mostly Cloudy 44 6.7 36 2.2 73 73 N 13 20 30.37 1028 10 16 0.00 0.00
10:52 am 10:52 Cloudy 42 5.6 35 1.7 76 76 NNW 13 20 30.37 1028 10 16 0.00 0.00
11:19 am 11:19 Partly Cloudy 45 7.2 37 2.8 74 74 NW 10 17 30.38 1029 10 16 0.00 0.00
11:52 am 11:52 Mostly Sunny 47 8.3 36 2.2 66 66 NNW 13 20 30.37 1028 10 16 0.00 0.00
12:52 pm 12:52 Sunny 50 10 35 1.7 57 57 NW 12 19 30.36 1028 10 16 0.00 0.00
1:52 pm 13:52 Mostly Sunny 52 11.1 34 1.1 50 50 NW 14 22 30.35 1028 10 16 0.00 0.00
2:52 pm 14:52 Partly Cloudy 54 12.2 32 0 43 43 NW 15 24 30.34 1027 10 16 0.00 0.00
3:52 pm 15:52 Mostly Sunny 55 12.8 30 -1.1 38 38 N 13 20 30.32 1027 10 16 0.00 0.00
4:52 pm 16:52 Sunny 56 13.3 26 -3.3 32 32 NNW 13 20 30.31 1026 10 16 0.00 0.00
5:52 pm 17:52 Sunny 55 12.8 24 -4.4 30 30 NW 15 24 30.30 1026 10 16 0.00 0.00
6:52 pm 18:52 Sunny 52 11.1 22 -5.6 31 31 NNW 13 20 30.30 1026 10 16 0.00 0.00
7:52 pm 19:52 Clear 46 7.8 25 -3.9 44 44 NNW 8 13 30.30 1026 10 16 0.00 0.00
8:52 pm 20:52 Clear 46 7.8 24 -4.4 42 42 Calm 30.31 1027 10 16 0.00 0.00
9:52 pm 21:52 Clear 40 4.4 30 -1.1 68 68 Calm 30.33 1027 10 16 0.00 0.00
10:52 pm 22:52 Clear 38 3.3 28 -2.2 68 68 Calm 30.33 1027 10 16 0.00 0.00
11:52 pm 23:52 Clear 37 2.8 28 -2.2 70 70 Calm 30.32 1027 10 16 0.00 0.00

Powered by AerisWeather